Weather observations for the past three days for
Point Hope, Point Hope Airport
Imperial (Metric)
Date Time (akdt) Wind (mph) Vis. (mi.) Weather Sky Cond. Temperature (ºF) Relative Humidity Wind Chill (°F) Heat Index (°F) Pressure Precipitation (in)
Air Dwpt 6 hour altimeter (in) sea level (mb) 1 hr 3 hr 6 hr
Max. Min.
07 09:56 N 12 10.00 Overcast OVC005 19.9 18 19.9 17.1 92% 9 30.23 1023.5
07 08:56 N 10 10.00 Overcast OVC005 19 16 88% 8 30.23 1023.4
07 07:56 N 9 8.00 Light Snow OVC005 18 16 92% 8 30.23 1023.5
07 06:56 N 9 10.00 Overcast OVC007 18 16 92% 8 30.22 1023.3
07 05:56 N 13 6.00 Light Snow Fog/Mist OVC005 17.1 15.1 92% 5 30.22 1023.2
07 04:56 N 13 3.00 Light Snow Fog/Mist OVC005 18 16 92% 6 30.22 1023.2
07 03:56 N 13 5.00 Light Snow Fog/Mist OVC005 18 16 21 18 92% 6 30.22 1023.2
07 02:56 N 13 7.00 Light Snow OVC005 19 17.1 92% 7 30.21 1022.9
07 01:56 N 12 9.00 Light Snow OVC005 19.9 17.1 89% 9 30.2 1022.5
07 00:56 N 12 10.00 Overcast OVC007 19.9 18 92% 9 30.19 1022.4
06 23:56 N 10 10.00 Overcast OVC005 19.9 17.1 89% 9 30.19 1022.3
06 22:56 N 12 10.00 Overcast OVC007 19.9 17.1 89% 9 30.18 1022.0
06 21:56 N 13 10.00 Overcast OVC007 21 18 24.1 21 88% 10 30.18 1021.8
06 20:56 N 14 10.00 Overcast OVC007 23 18 81% 11 30.17 1021.6
06 19:56 N 16 10.00 Overcast OVC007 23 18 81% 11 30.17 1021.4
06 18:56 N 13 10.00 Overcast OVC009 23 17.1 78% 12 30.16 1021.2
06 17:56 N 9 10.00 Overcast BKN009 OVC014 23 18 81% 14 30.15 1020.7
06 16:56 N 10 10.00 Mostly Cloudy BKN016 23 16 74% 13 30.14 1020.4
06 15:56 N 13 10.00 Overcast OVC011 23 16 25 19.9 74% 12 30.13 1020.1
06 14:56 N 13 10.00 Overcast OVC011 21.9 15.1 75% 11 30.13 1020.0
06 13:56 N 13 10.00 Overcast OVC011 21 15.1 78% 10 30.12 1019.8
06 12:56 N 13 10.00 Overcast OVC011 21.9 15.1 75% 11 30.1 1019.2
06 11:56 N 9 10.00 Overcast OVC013 23 15.1 72% 14 30.09 1018.9
06 10:56 N 10 10.00 Overcast OVC015 21.9 17.1 82% 12 30.07 1018.2
06 09:56 N 8 10.00 Overcast OVC017 19.9 17.1 19.9 18 89% 11 30.06 1017.8
06 08:56 N 10 9.00 Light Snow OVC010 19 16 88% 8 30.05 1017.5
06 07:56 N 9 9.00 Overcast OVC012 19 16 88% 9 30.04 1017.0
06 06:56 NW 8 9.00 Overcast OVC012 18 16 92% 9 30.03 1016.7
06 05:56 NW 7 9.00 Overcast OVC010 18 16 92% 10 30.02 1016.5
06 04:56 NW 8 9.00 Light Snow FEW010 OVC046 18 15.1 88% 9 30.02 1016.3
06 03:56 NW 7 7.00 Light Snow FEW029 BKN039 BKN048 18 15.1 19 17.1 88% 10 30.01 1016.2
06 02:56 NW 8 9.00 Light Snow OVC048 18 14 84% 9 30 1015.9
06 01:56 NW 9 9.00 Light Snow OVC011 18 15.1 88% 8 30 1015.8
06 00:56 NW 8 9.00 Light Snow OVC047 18 14 84% 9 29.99 1015.6
05 23:56 NW 8 9.00 Light Snow OVC015 19 14 81% 10 29.99 1015.4
05 22:56 NW 7 10.00 Overcast BKN013 OVC046 19 14 81% 11 29.99 1015.4
05 21:56 NW 8 10.00 Overcast BKN015 OVC048 19 14 23 19 81% 10 29.98 1015.0
05 20:56 NW 9 9.00 Light Snow OVC013 19.9 15.1 81% 10 29.98 1015.0
05 19:56 NW 7 9.00 Light Snow OVC013 19.9 15.1 81% 12 29.98 1014.9
05 18:56 NW 9 9.00 Light Snow OVC011 19.9 15.1 81% 10 29.97 1014.6
05 17:56 NW 9 9.00 Light Snow OVC009 21 16 81% 11 29.96 1014.5
05 16:56 NW 7 9.00 Light Snow OVC009 23 18 81% 16 29.96 1014.4
05 15:56 W 7 10.00 Overcast OVC007 21 16 21.9 17.1 81% 13 29.96 1014.4
05 14:56 NW 7 10.00 Overcast OVC005 19.9 16 85% 12 29.96 1014.5
05 13:56 W 9 10.00 Overcast OVC003 19 16 88% 9 29.96 1014.3
05 12:56 W 9 10.00 Overcast OVC003 18 16 92% 8 29.96 0.0
05 11:56 W 7 10.00 Overcast OVC003 18 16 92% 10 29.96 0.0
05 10:56 W 5 10.00 Overcast OVC003 18 16 92% 12 29.96 0.0
05 09:56 W 7 10.00 Overcast OVC005 18 16 18 16 92% 10 29.96 0.0
05 08:56 NW 5 10.00 Overcast OVC005 18 16 92% 12 29.96 0.0
05 07:56 NW 6 5.00 Fog/Mist OVC003 17.1 15.1 92% 10 29.96 0.0
05 06:56 W 6 0.25 Freezing Fog OVC003 16 14 92% 8 29.96 0.0
05 05:56 NW 5 0.75 Fog/Mist OVC003 16 14 92% 10 29.96 0.0
05 04:56 NW 6 9.00 Overcast OVC003 18 16 92% 11 29.96 0.0
05 03:56 W 5 10.00 Overcast OVC005 18 16 92% 12 29.97 0.0
05 02:56 W 7 10.00 Overcast OVC005 19 17.1 92% 11 29.98 0.0
05 01:56 NW 6 10.00 Overcast OVC005 19.9 17.1 89% 13 29.99 0.0
05 00:56 NW 3 10.00 Overcast OVC005 0 0 0% 30 0.0
04 23:56 W 5 10.00 Overcast OVC005 0 0 0% 30 0.0
04 22:56 W 10 10.00 Overcast OVC007 0 0 0% 30.01 0.0
04 21:56 SW 9 10.00 Overcast OVC007 0 0 0% 30.01 0.0
04 20:56 SW 12 10.00 Overcast OVC009 0 0 0% 30.01 0.0
04 19:56 SW 9 10.00 A Few Clouds FEW009 0 0 0% 30.02 0.0
04 18:56 SW 14 10.00 Mostly Cloudy BKN009 0 0 0% 30.03 0.0
04 17:56 S 12 10.00 Overcast OVC009 0 0 0% 30.04 0.0
04 16:56 SW 10 10.00 Partly Cloudy SCT009 0 0 0% 30.05 0.0
04 15:56 S 13 9.00 Light Snow BKN007 OVC048 0 0 0% 30.06 0.0
04 14:56 SW 12 4.00 Light Snow FEW008 0 0 0% 30.07 0.0
04 13:56 SW 10 2.50 Light Snow SCT008 OVC026 0 0 0% 30.08 0.0
04 12:56 SW 10 2.50 Light Snow FEW008 SCT025 BKN033 0 0 0% 30.08 0.0
04 11:56 SW 10 1.50 Light Snow SCT020 OVC027 0 0 0% 30.09 0.0
04 10:56 SW 10 5.00 Light Snow FEW008 BKN027 OVC032 0 0 0% 30.09 0.0
Date Time (akdt) Wind (mph) Vis. (mi.) Weather Sky Cond. Air Dwpt Max. Min. Relative Humidity Wind Chill (°F) Heat Index (°F) altimeter (in) sea level (mb) 1 hr 3 hr 6 hr
6 hour
Temperature (ºF) Pressure Precipitation (in)